SCP
0 0 0 0 0 0 0 0 0 0 0 0 0 0 0 0 0 0 0 0 0 0 0 0 0 0 -0 0 -0 0 0 0 0 -0 -0 -0 -0 0 -0 -0 0 0 -0 0 0 0 0
0 0 0 0 0 0 0 0 0 0 0 0 0 0 0 0 0 0 0 0 0 0 0 0 0 0 -0 0 -0 0 0 0 0 -0 -0 -0 0 0 0 -0 0 -0 0 0 0 0 0
0 0 0 0 0 0 0 0 0 0 0 0 0 0 0 0 0 0 0 0 0 0 0 0 0 0 -0 -0 -0 0 0 0 -0 -0 -0 -0 0 0 0 0 0 0 0 0 0 0 0
0 0 0 0 0 0 0 0 0 0 0 0 0 0 0 0 0 0 0 0 0 0 0 0 0 -0 0 -0 0 -0 -0 -0 -0 -0 -0 -0 0 0 0 0 0 0 0 -0 0 0 -0
0 0 0 0 0 0 0 0 0 0 0 0 0 0 0 0 0 0 0 0 0 0 0 0 0 -0 0 0 0 -0 -0 -0 0 0 -0 0 0 0 0 0 0 0 0 -0 -0 -0 -0
0 0 0 0 0 0 0 0 0 0 0 0 0 0 0 0 0 0 0 0 0 0 0 0 0 -0 -0 0 0 -0 0 -0 0 -0 0 0 0 0 0 0 0 -0 -0 -0 0 -0 0
0 0 0 0 0 0 0 0 0 0 0 0 0 0 0 0 0 0 0 0 0 0 0 0 0 0 -0 0 0 -0 0 -0 -0 -0 -0 -0 0 0 0 -0 -0 -0 -0 -0 0 -0 0
0 0 0 0 0 0 0 0 0 0 0 0 0 0 0 0 0 0 0 0 0 0 0 0 -0 -0 0 0 0 0 -0 0 -0 0 -0 0 -0 0 -0 -0 -0 -0 -0 0 0 -0 -0
0 0 0 0 0 0 0 0 0 0 0 0 0 0 0 0 0 0 0 0 0 0 0 -0 0 -0 0 -0 0 -0 -0 -0 -0 -0 0 -0 0 0 -0 -0 -0 -0 -0 0 0 -0 -0
0 0 0 0 0 0 0 0 0 0 0 0 0 0 0 0 0 0 0 0 -0 0 0 0 0 -0 0 -0 0 -0 -0 -0 0 -0 0 -0 0 0 -0 -0 0 0 0 0 0 -0 -0
0 0 0 0 0 0 0 0 0 0 0 0 0 0 0 0 0 0 0 0 0 0 0 0 -0 0 0 -0 0 -0 0 0 0 -0 0 -0 0 -0 -0 0 0 0 0 -0 -0 0 0
0 0 0 0 0 0 0 0 0 0 0 0 0 0 0 0 0 0 0 0 0 0 0 0 0 0 -0 -0 0 0 0 0 0 0 0 0 -0 -0 0 0 0 0 0 -0 -0 0 0
0 0 0 0 0 0 0 0 0 0 0 0 0 0 0 0 0 0 0 0 0 0 -0 0 -0 -0 -0 -0 0 -0 0 0 0 0 0 0 -0 0 0 0 0 -0 0 0 0 -0 0
0 0 0 0 0 0 0 0 0 0 0 0 0 0 0 0 0 0 0 0 0 0 0 0 -0 -0 -0 0 -0 0 0 -0 -0 0 -0 0 -0 0 0 -0 0 -0 0 -0 0 -0 0
0 0 0 0 0 0 0 0 0 0 0 0 0 0 0 0 0 0 0 0 0 0 -0 0 0 -0 -0 0 0 0 0 -0 -0 -0 0 0 0 0 0 0 0 -0 0 0 0 0 -0
0 0 0 0 0 0 0 0 0 0 0 0 0 0 0 0 0 0 0 0 0 -0 -0 0 0 -0 -0 0 0 0 0 0 0 0 0 0 -0 0 0 0 0 0 0 0 0 0 0
0 0 0 0 0 0 0 0 0 0 0 0 0 0 0 0 0 0 0 0 -0 -0 -0 -0 -0 0 0 0 0 -0 0 -0 0 0 0 -0 0 -0 -0 -0 0 0 -0 0 0 0 0
0 0 0 0 0 0 0 0 0 0 0 0 0 0 0 0 0 0 0 0 -0 0 -0 -0 -0 -0 -0 -0 0 -0 0 0 0 0 0 0 0 0 0 0 0 0 0 -0 0 0 0
0 0 0 0 0 0 0 0 0 0 0 0 0 0 0 0 0 0 0 0 -0 -0 -0 0 -0 -0 -0 -0 -0 0 0 0 0 0 0 0 0 0 0 0 0 0 0 0 0 0 0
0 0 0 -0 0 0 0 0 0 0 0 0 0 1 1 0 0 0 0 0 0 -0 -0 0 -0 -0 -0 -0 0 0 0 0 0 0 0 0 0 0 0 0 0 0 0 0 0 0 0
0 0 0 -0 0 0 0 0 0 0 -0 0 1 0 0 0 0 0 0 0 0 0 -0 -0 0 -0 0 0 0 0 0 0 0 0 0 0 0 0 0 0 0 0 0 0 0 0 0
0 0 0 -0 0 0 0 0 0 0 0 0 1 0 0 0 0 0 0 0 0 0 0 -0 0 -0 0 0 0 0 0 0 0 0 0 0 0 0 0 0 0 0 0 0 0 0 0
0 0 0 0 0 0 0 0 0 0 0 0 0 0 0 0 0 0 0 0 0 0 0 0 0 0 0 0 0 0 0 0 0 0 0 0 0 0 0 0 0 0 0 -0 0 0 0
0 0 0 0 0 0 0 0 0 0 0 0 0 1 1 0 0 0 0 0 0 0 0 0 0 -0 0 0 0 0 0 0 0 0 0 0 0 0 0 0 0 0 0 0 0 0 0
0 -0 0 0 0 0 0 0 0 -0 -0 0 0 0 2 0 0 0 0 0 0 0 0 0 1 0 0 0 0 0 0 0 0 0 0 0 0 0 0 0 0 0 0 0 0 0 0
0 -0 -0 0 0 0 0 0 -0 -0 0 0 -0 0 0 1 0 0 0 0 1 0 0 0 1 1 1 1 1 0 0 0 0 0 0 0 0 0 0 0 0 0 0 0 0 0 0
0 -0 0 0 0 0 0 0 -0 -0 0 -0 -0 0 0 1 1 0 0 0 1 0 0 0 0 0 0 1 0 0 0 0 0 0 0 0 0 0 0 0 0 0 0 0 0 0 0
0 -0 0 0 0 0 0 -0 0 0 -0 -0 -0 0 0 1 1 1 1 0 1 0 0 0 1 1 2 1 1 0 0 0 0 0 0 0 0 0 0 0 0 0 0 0 0 0 0
-0 -0 -0 -0 0 0 0 0 0 -0 -0 -0 -0 0 0 0 3 2 1 1 2 1 0 0 1 0 0 1 1 1 0 0 0 0 0 0 0 0 0 0 0 0 0 0 0 0 0
Wind_Speed_500mb
74 73 64 56 52 49 46 41 39 36 36 37 34 32 34 34 35 36 39 42 42 41 37 33 28 27 20 14 28 10 11 6 9 19 21 21 20 24 27 29 27 28 35 17 14 10 16
44 64 75 70 57 51 49 47 42 39 38 37 36 33 33 33 34 35 38 41 41 38 33 28 23 23 17 24 6 9 11 7 12 22 18 21 18 20 28 34 23 20 33 8 6 8 7
43 43 48 74 72 57 53 52 48 41 39 38 36 34 33 32 33 34 37 38 39 33 28 23 19 20 20 43 11 1 11 7 14 20 23 17 20 19 14 22 27 11 14 7 5 6 7
49 45 45 46 69 72 59 55 51 45 40 38 36 34 32 31 32 33 35 35 34 29 23 18 14 15 21 12 17 22 20 20 20 23 25 19 11 22 24 30 16 16 11 10 13 25 22
60 52 50 47 48 67 67 63 58 50 42 39 36 34 32 31 31 32 31 32 29 24 19 13 7 11 21 11 23 24 22 24 12 16 18 16 13 23 24 20 18 3 12 18 31 28 13
70 64 57 50 46 46 70 65 61 55 44 39 36 34 31 30 30 29 28 26 23 19 16 11 14 18 27 19 20 21 18 17 14 15 15 17 15 13 19 15 9 16 29 32 25 26 22
75 73 70 63 53 50 51 66 62 61 48 42 36 33 30 30 28 26 22 14 16 7 23 24 18 24 9 3 9 20 22 19 19 19 22 25 13 17 12 10 26 22 30 29 22 26 17
75 74 69 70 63 55 54 62 65 63 53 46 37 32 30 30 27 26 22 15 5 17 22 40 43 39 31 16 17 29 28 23 22 19 24 20 11 11 28 34 38 31 1 20 25 18 19
77 71 72 67 65 58 49 53 63 60 50 45 40 32 29 28 27 32 33 36 18 31 16 34 51 45 33 26 32 33 26 32 25 7 19 31 7 27 24 32 24 17 24 14 18 15 22
80 75 68 69 68 62 53 54 65 61 54 46 43 34 30 22 19 23 28 15 21 13 10 20 36 32 35 21 31 47 44 36 10 21 18 7 22 32 35 23 9 4 21 15 31 30 14
90 86 78 72 67 63 61 55 62 66 59 52 43 37 33 25 13 17 14 5 9 7 8 22 34 19 32 36 16 41 16 29 11 23 9 8 29 36 41 14 10 6 18 33 31 11 8
83 96 87 79 76 67 62 58 57 65 60 56 45 42 33 38 41 23 4 14 10 9 15 11 25 27 36 34 40 20 36 31 23 3 12 20 37 42 4 4 5 26 20 30 18 18 15
80 94 95 86 80 76 67 63 60 66 63 54 47 47 44 33 19 19 15 12 10 15 20 22 35 32 35 30 32 25 31 34 25 17 16 16 32 9 10 12 12 15 19 5 14 13 8
101 89 102 92 86 79 72 61 61 65 64 61 48 49 49 49 27 6 19 12 22 22 43 7 31 31 40 34 29 29 26 33 35 36 18 23 18 25 17 14 8 29 15 7 4 10 14
98 90 91 99 89 81 76 64 59 65 65 63 52 51 53 56 44 19 33 23 22 26 41 17 26 28 36 37 20 28 31 32 37 37 22 11 5 27 21 6 19 19 8 8 14 6 4
92 92 94 99 93 83 76 70 63 62 67 60 64 44 53 53 51 28 21 36 30 50 24 25 29 30 34 36 27 22 27 26 35 36 27 13 5 27 33 12 9 10 12 7 4 4 7
95 100 88 91 91 85 76 72 67 64 74 61 63 28 32 54 53 31 30 35 43 53 42 19 28 30 37 29 30 26 20 25 37 18 14 14 21 16 12 17 17 11 14 10 12 7 1
90 92 84 87 90 83 80 75 70 70 70 58 44 15 48 76 33 36 31 44 58 37 37 24 20 32 31 29 26 28 28 26 18 18 18 26 10 9 24 6 11 18 21 17 6 11 4
91 87 81 83 90 80 82 80 75 74 77 75 34 36 66 71 25 28 37 50 56 46 35 29 30 27 23 26 21 27 19 14 18 16 6 8 7 10 19 12 15 16 23 18 17 4 8
85 80 81 79 99 76 88 81 82 78 79 78 31 18 25 63 53 42 47 45 51 63 40 33 31 30 23 28 18 18 18 7 8 3 7 8 10 18 13 22 9 12 21 22 20 5 8
84 80 76 79 93 77 87 86 86 81 78 85 33 22 25 23 39 38 42 42 50 46 47 42 32 33 25 16 22 21 22 15 9 5 4 6 17 23 28 28 15 19 24 15 21 20 19
80 75 75 64 63 77 88 87 86 80 81 89 34 23 51 20 53 43 40 54 54 49 39 40 32 35 26 22 23 20 22 17 14 14 17 10 12 9 15 19 26 22 29 30 31 31 29
70 70 73 69 71 74 74 83 85 73 90 45 65 54 51 42 43 38 43 49 51 37 45 47 35 27 33 14 15 23 6 32 15 21 19 13 5 5 4 11 14 10 20 32 31 29 26
70 73 73 72 65 67 73 77 75 70 93 46 73 30 28 27 37 48 51 49 52 44 18 33 35 35 21 39 38 36 31 19 16 7 17 11 10 5 2 3 1 17 8 10 10 15 18
77 71 77 76 68 67 69 68 70 61 99 77 74 25 17 18 39 51 52 50 66 38 21 24 4 30 54 29 9 8 4 7 2 5 5 7 9 4 5 9 15 23 1 5 5 10 23
75 70 85 77 68 65 68 63 74 64 92 94 96 67 23 19 39 90 52 65 23 14 14 17 37 37 19 7 4 8 8 11 15 13 1 3 10 6 5 4 8 3 11 6 4 5 19
76 70 77 76 69 67 67 71 59 78 96 77 106 87 38 37 61 92 40 36 30 20 2 16 18 10 13 6 5 4 6 7 12 13 8 4 1 8 7 3 11 12 10 2 5 7 11
72 73 78 72 70 66 68 66 75 92 95 70 102 73 66 50 60 70 53 47 45 50 19 30 17 6 8 6 6 4 4 6 4 14 14 13 11 7 4 4 11 13 11 5 9 13 18
70 71 70 66 67 71 75 76 89 104 101 82 87 50 56 45 25 53 14 17 25 42 32 37 17 23 15 8 4 7 4 4 4 5 11 8 9 7 14 7 13 10 12 11 13 13 19
Wind_Direction_500mb
252 252 252 254 259 257 264 278 285 291 297 299 291 279 283 290 296 302 306 308 311 314 314 315 316 308 311 282 266 267 318 293 211 196 213 238 238 243 248 253 243 238 259 234 32 273 121
262 253 250 249 253 256 258 264 275 284 290 294 296 280 281 288 296 301 305 308 311 312 313 312 313 302 302 266 328 270 271 276 207 200 219 240 245 262 294 296 240 222 253 120 281 267 152
267 268 260 247 245 246 251 258 264 275 284 291 293 282 281 288 293 298 303 308 310 309 310 308 311 300 279 247 226 323 227 247 216 218 240 235 258 276 247 279 272 300 270 90 250 196 329
267 268 267 263 246 243 243 248 254 265 276 283 288 285 279 283 289 297 302 307 306 304 305 304 305 298 263 253 254 249 245 251 253 242 236 267 275 261 279 301 283 242 186 181 217 239 205
267 264 264 263 263 243 242 244 252 253 266 276 282 284 277 280 286 295 301 305 301 300 297 290 299 308 268 288 233 232 231 245 219 233 222 245 247 243 246 243 247 271 189 180 243 207 168
267 268 264 262 262 262 239 240 243 249 255 267 275 282 277 276 283 293 300 303 298 290 279 265 237 274 253 233 210 231 218 223 215 196 199 229 213 236 218 235 174 210 252 201 214 174 206
257 263 264 264 258 259 249 239 240 245 248 258 266 274 272 272 280 287 291 306 308 274 218 226 232 222 159 284 242 225 218 206 231 197 221 192 204 215 255 180 228 224 239 211 218 156 206
251 253 258 259 261 254 252 238 236 244 241 251 256 265 266 265 275 274 262 222 355 345 293 250 246 251 265 286 278 217 201 211 203 243 65 289 193 253 214 217 248 277 70 315 120 158 201
246 248 251 255 254 256 253 244 230 239 233 244 247 253 255 261 272 270 264 247 264 333 271 274 222 230 236 228 241 225 198 226 237 162 296 305 135 289 201 228 230 282 123 306 352 237 213
242 241 247 249 251 252 252 243 226 232 230 231 240 244 244 250 285 292 262 279 210 294 279 242 189 222 221 225 233 237 212 230 142 251 119 282 276 266 279 240 274 34 338 201 227 214 228
239 239 240 243 245 247 245 237 229 228 232 225 232 237 235 219 234 214 11 207 202 187 275 178 180 188 191 204 171 224 211 235 171 243 145 299 306 278 264 102 307 174 236 265 261 257 112
243 241 239 239 241 241 238 238 228 223 225 220 228 228 228 220 223 195 148 145 159 229 236 164 154 197 201 202 240 216 197 223 252 173 205 176 248 257 250 84 338 175 212 244 262 284 192
241 241 236 238 237 239 238 236 226 220 219 217 225 223 221 214 214 233 183 170 211 231 239 182 172 189 211 201 221 237 178 208 227 209 221 175 229 236 175 203 198 224 264 272 25 332 233
241 238 236 233 234 236 237 233 222 220 217 214 221 219 221 216 182 204 190 203 227 204 243 185 187 196 209 208 208 207 223 210 212 240 227 207 218 220 204 252 80 318 269 107 327 212 313
243 239 237 235 229 231 231 227 219 215 215 213 218 215 226 214 194 201 207 213 202 247 204 220 194 199 208 217 202 201 221 216 217 223 254 335 64 342 322 251 156 228 265 149 271 108 313
241 236 232 231 229 225 228 223 215 212 207 197 206 205 224 205 192 193 219 225 226 237 278 188 211 204 211 214 188 205 207 232 225 221 146 157 21 277 253 251 213 265 345 283 207 281 270
239 232 227 228 226 223 221 216 210 208 202 193 191 194 232 198 188 208 219 215 233 236 251 269 218 218 225 207 189 228 216 217 219 177 206 148 145 246 230 216 250 177 242 231 284 277 69
232 227 225 227 224 216 215 212 207 205 202 190 179 211 195 179 180 215 221 214 229 236 244 249 262 233 222 219 198 219 210 213 208 227 199 232 297 184 210 116 356 314 297 226 176 269 170
226 220 220 225 219 210 210 208 205 204 200 192 185 186 175 183 201 206 211 220 233 229 240 209 244 246 225 234 216 201 226 32 68 197 228 221 238 275 287 215 208 235 250 250 278 122 243
221 219 220 228 223 207 205 203 203 203 200 185 186 167 176 202 215 199 198 211 221 234 240 204 230 226 230 228 198 200 217 125 137 153 71 326 241 250 240 263 334 226 235 248 227 159 240
217 220 218 227 221 201 200 199 203 202 201 188 202 192 181 192 209 205 200 207 217 212 222 240 220 223 211 222 204 213 214 118 145 116 168 244 246 261 265 276 293 292 294 254 250 247 229
213 212 216 223 212 194 194 197 202 204 200 201 201 195 175 193 193 212 208 216 215 206 204 230 212 217 203 214 219 194 215 158 179 171 207 203 243 288 293 296 289 273 276 277 273 276 278
210 206 207 210 191 184 191 196 202 206 194 199 211 207 178 212 186 195 212 206 223 209 209 219 212 196 215 204 155 67 138 177 203 168 198 190 232 136 243 350 350 323 250 252 262 267 270
207 201 192 191 183 193 195 198 203 203 200 196 201 216 219 186 184 199 197 209 217 217 190 196 213 224 123 114 93 79 79 79 93 71 201 191 213 89 152 316 264 243 38 355 337 313 316
202 200 194 189 194 198 201 200 200 202 214 206 201 233 240 196 184 189 199 203 221 195 147 228 117 140 145 116 108 100 80 45 160 132 167 216 132 127 147 211 279 306 33 25 27 47 36
194 195 194 194 196 201 202 207 200 216 214 208 210 211 272 215 198 183 192 212 186 154 128 191 112 140 142 88 116 170 168 204 169 143 176 111 155 157 170 211 211 100 102 67 344 171 38
190 192 194 196 199 203 209 204 213 210 197 211 215 205 240 208 195 187 196 205 147 122 282 153 125 102 106 90 133 158 202 225 163 162 174 96 311 177 146 206 292 85 112 99 220 69 47
190 194 196 200 203 210 212 209 205 197 206 207 203 209 210 244 173 187 202 206 139 129 229 144 125 130 121 107 137 136 107 206 211 181 159 169 160 184 157 144 262 134 131 136 55 9 7
192 195 198 205 212 205 212 212 194 197 196 200 229 203 240 227 119 158 124 102 143 152 160 180 147 148 159 127 82 75 111 26 19 184 165 194 185 175 172 198 145 114 55 69 37 15 8
Wind_Speed_850mb
74 73 64 56 52 49 46 41 39 36 36 37 34 32 34 34 35 36 39 42 42 41 37 33 28 27 20 14 28 10 11 6 9 19 21 21 20 24 27 29 27 28 35 17 14 10 16
44 64 75 70 57 51 49 47 42 39 38 37 36 33 33 33 34 35 38 41 41 38 33 28 23 23 17 24 6 9 11 7 12 22 18 21 18 20 28 34 23 20 33 8 6 8 7
43 43 48 74 72 57 53 52 48 41 39 38 36 34 33 32 33 34 37 38 39 33 28 23 19 20 20 43 11 1 11 7 14 20 23 17 20 19 14 22 27 11 14 7 5 6 7
49 45 45 46 69 72 59 55 51 45 40 38 36 34 32 31 32 33 35 35 34 29 23 18 14 15 21 12 17 22 20 20 20 23 25 19 11 22 24 30 16 16 11 10 13 25 22
60 52 50 47 48 67 67 63 58 50 42 39 36 34 32 31 31 32 31 32 29 24 19 13 7 11 21 11 23 24 22 24 12 16 18 16 13 23 24 20 18 3 12 18 31 28 13
70 64 57 50 46 46 70 65 61 55 44 39 36 34 31 30 30 29 28 26 23 19 16 11 14 18 27 19 20 21 18 17 14 15 15 17 15 13 19 15 9 16 29 32 25 26 22
75 73 70 63 53 50 51 66 62 61 48 42 36 33 30 30 28 26 22 14 16 7 23 24 18 24 9 3 9 20 22 19 19 19 22 25 13 17 12 10 26 22 30 29 22 26 17
75 74 69 70 63 55 54 62 65 63 53 46 37 32 30 30 27 26 22 15 5 17 22 40 43 39 31 16 17 29 28 23 22 19 24 20 11 11 28 34 38 31 1 20 25 18 19
77 71 72 67 65 58 49 53 63 60 50 45 40 32 29 28 27 32 33 36 18 31 16 34 51 45 33 26 32 33 26 32 25 7 19 31 7 27 24 32 24 17 24 14 18 15 22
80 75 68 69 68 62 53 54 65 61 54 46 43 34 30 22 19 23 28 15 21 13 10 20 36 32 35 21 31 47 44 36 10 21 18 7 22 32 35 23 9 4 21 15 31 30 14
90 86 78 72 67 63 61 55 62 66 59 52 43 37 33 25 13 17 14 5 9 7 8 22 34 19 32 36 16 41 16 29 11 23 9 8 29 36 41 14 10 6 18 33 31 11 8
83 96 87 79 76 67 62 58 57 65 60 56 45 42 33 38 41 23 4 14 10 9 15 11 25 27 36 34 40 20 36 31 23 3 12 20 37 42 4 4 5 26 20 30 18 18 15
80 94 95 86 80 76 67 63 60 66 63 54 47 47 44 33 19 19 15 12 10 15 20 22 35 32 35 30 32 25 31 34 25 17 16 16 32 9 10 12 12 15 19 5 14 13 8
101 89 102 92 86 79 72 61 61 65 64 61 48 49 49 49 27 6 19 12 22 22 43 7 31 31 40 34 29 29 26 33 35 36 18 23 18 25 17 14 8 29 15 7 4 10 14
98 90 91 99 89 81 76 64 59 65 65 63 52 51 53 56 44 19 33 23 22 26 41 17 26 28 36 37 20 28 31 32 37 37 22 11 5 27 21 6 19 19 8 8 14 6 4
92 92 94 99 93 83 76 70 63 62 67 60 64 44 53 53 51 28 21 36 30 50 24 25 29 30 34 36 27 22 27 26 35 36 27 13 5 27 33 12 9 10 12 7 4 4 7
95 100 88 91 91 85 76 72 67 64 74 61 63 28 32 54 53 31 30 35 43 53 42 19 28 30 37 29 30 26 20 25 37 18 14 14 21 16 12 17 17 11 14 10 12 7 1
90 92 84 87 90 83 80 75 70 70 70 58 44 15 48 76 33 36 31 44 58 37 37 24 20 32 31 29 26 28 28 26 18 18 18 26 10 9 24 6 11 18 21 17 6 11 4
91 87 81 83 90 80 82 80 75 74 77 75 34 36 66 71 25 28 37 50 56 46 35 29 30 27 23 26 21 27 19 14 18 16 6 8 7 10 19 12 15 16 23 18 17 4 8
85 80 81 79 99 76 88 81 82 78 79 78 31 18 25 63 53 42 47 45 51 63 40 33 31 30 23 28 18 18 18 7 8 3 7 8 10 18 13 22 9 12 21 22 20 5 8
84 80 76 79 93 77 87 86 86 81 78 85 33 22 25 23 39 38 42 42 50 46 47 42 32 33 25 16 22 21 22 15 9 5 4 6 17 23 28 28 15 19 24 15 21 20 19
80 75 75 64 63 77 88 87 86 80 81 89 34 23 51 20 53 43 40 54 54 49 39 40 32 35 26 22 23 20 22 17 14 14 17 10 12 9 15 19 26 22 29 30 31 31 29
70 70 73 69 71 74 74 83 85 73 90 45 65 54 51 42 43 38 43 49 51 37 45 47 35 27 33 14 15 23 6 32 15 21 19 13 5 5 4 11 14 10 20 32 31 29 26
70 73 73 72 65 67 73 77 75 70 93 46 73 30 28 27 37 48 51 49 52 44 18 33 35 35 21 39 38 36 31 19 16 7 17 11 10 5 2 3 1 17 8 10 10 15 18
77 71 77 76 68 67 69 68 70 61 99 77 74 25 17 18 39 51 52 50 66 38 21 24 4 30 54 29 9 8 4 7 2 5 5 7 9 4 5 9 15 23 1 5 5 10 23
75 70 85 77 68 65 68 63 74 64 92 94 96 67 23 19 39 90 52 65 23 14 14 17 37 37 19 7 4 8 8 11 15 13 1 3 10 6 5 4 8 3 11 6 4 5 19
76 70 77 76 69 67 67 71 59 78 96 77 106 87 38 37 61 92 40 36 30 20 2 16 18 10 13 6 5 4 6 7 12 13 8 4 1 8 7 3 11 12 10 2 5 7 11
72 73 78 72 70 66 68 66 75 92 95 70 102 73 66 50 60 70 53 47 45 50 19 30 17 6 8 6 6 4 4 6 4 14 14 13 11 7 4 4 11 13 11 5 9 13 18
70 71 70 66 67 71 75 76 89 104 101 82 87 50 56 45 25 53 14 17 25 42 32 37 17 23 15 8 4 7 4 4 4 5 11 8 9 7 14 7 13 10 12 11 13 13 19
Wind_Direction_850mb
252 252 252 254 259 257 264 278 285 291 297 299 291 279 283 290 296 302 306 308 311 314 314 315 316 308 311 282 266 267 318 293 211 196 213 238 238 243 248 253 243 238 259 234 32 273 121
262 253 250 249 253 256 258 264 275 284 290 294 296 280 281 288 296 301 305 308 311 312 313 312 313 302 302 266 328 270 271 276 207 200 219 240 245 262 294 296 240 222 253 120 281 267 152
267 268 260 247 245 246 251 258 264 275 284 291 293 282 281 288 293 298 303 308 310 309 310 308 311 300 279 247 226 323 227 247 216 218 240 235 258 276 247 279 272 300 270 90 250 196 329
267 268 267 263 246 243 243 248 254 265 276 283 288 285 279 283 289 297 302 307 306 304 305 304 305 298 263 253 254 249 245 251 253 242 236 267 275 261 279 301 283 242 186 181 217 239 205
267 264 264 263 263 243 242 244 252 253 266 276 282 284 277 280 286 295 301 305 301 300 297 290 299 308 268 288 233 232 231 245 219 233 222 245 247 243 246 243 247 271 189 180 243 207 168
267 268 264 262 262 262 239 240 243 249 255 267 275 282 277 276 283 293 300 303 298 290 279 265 237 274 253 233 210 231 218 223 215 196 199 229 213 236 218 235 174 210 252 201 214 174 206
257 263 264 264 258 259 249 239 240 245 248 258 266 274 272 272 280 287 291 306 308 274 218 226 232 222 159 284 242 225 218 206 231 197 221 192 204 215 255 180 228 224 239 211 218 156 206
251 253 258 259 261 254 252 238 236 244 241 251 256 265 266 265 275 274 262 222 355 345 293 250 246 251 265 286 278 217 201 211 203 243 65 289 193 253 214 217 248 277 70 315 120 158 201
246 248 251 255 254 256 253 244 230 239 233 244 247 253 255 261 272 270 264 247 264 333 271 274 222 230 236 228 241 225 198 226 237 162 296 305 135 289 201 228 230 282 123 306 352 237 213
242 241 247 249 251 252 252 243 226 232 230 231 240 244 244 250 285 292 262 279 210 294 279 242 189 222 221 225 233 237 212 230 142 251 119 282 276 266 279 240 274 34 338 201 227 214 228
239 239 240 243 245 247 245 237 229 228 232 225 232 237 235 219 234 214 11 207 202 187 275 178 180 188 191 204 171 224 211 235 171 243 145 299 306 278 264 102 307 174 236 265 261 257 112
243 241 239 239 241 241 238 238 228 223 225 220 228 228 228 220 223 195 148 145 159 229 236 164 154 197 201 202 240 216 197 223 252 173 205 176 248 257 250 84 338 175 212 244 262 284 192
241 241 236 238 237 239 238 236 226 220 219 217 225 223 221 214 214 233 183 170 211 231 239 182 172 189 211 201 221 237 178 208 227 209 221 175 229 236 175 203 198 224 264 272 25 332 233
241 238 236 233 234 236 237 233 222 220 217 214 221 219 221 216 182 204 190 203 227 204 243 185 187 196 209 208 208 207 223 210 212 240 227 207 218 220 204 252 80 318 269 107 327 212 313
243 239 237 235 229 231 231 227 219 215 215 213 218 215 226 214 194 201 207 213 202 247 204 220 194 199 208 217 202 201 221 216 217 223 254 335 64 342 322 251 156 228 265 149 271 108 313
241 236 232 231 229 225 228 223 215 212 207 197 206 205 224 205 192 193 219 225 226 237 278 188 211 204 211 214 188 205 207 232 225 221 146 157 21 277 253 251 213 265 345 283 207 281 270
239 232 227 228 226 223 221 216 210 208 202 193 191 194 232 198 188 208 219 215 233 236 251 269 218 218 225 207 189 228 216 217 219 177 206 148 145 246 230 216 250 177 242 231 284 277 69
232 227 225 227 224 216 215 212 207 205 202 190 179 211 195 179 180 215 221 214 229 236 244 249 262 233 222 219 198 219 210 213 208 227 199 232 297 184 210 116 356 314 297 226 176 269 170
226 220 220 225 219 210 210 208 205 204 200 192 185 186 175 183 201 206 211 220 233 229 240 209 244 246 225 234 216 201 226 32 68 197 228 221 238 275 287 215 208 235 250 250 278 122 243
221 219 220 228 223 207 205 203 203 203 200 185 186 167 176 202 215 199 198 211 221 234 240 204 230 226 230 228 198 200 217 125 137 153 71 326 241 250 240 263 334 226 235 248 227 159 240
217 220 218 227 221 201 200 199 203 202 201 188 202 192 181 192 209 205 200 207 217 212 222 240 220 223 211 222 204 213 214 118 145 116 168 244 246 261 265 276 293 292 294 254 250 247 229
213 212 216 223 212 194 194 197 202 204 200 201 201 195 175 193 193 212 208 216 215 206 204 230 212 217 203 214 219 194 215 158 179 171 207 203 243 288 293 296 289 273 276 277 273 276 278
210 206 207 210 191 184 191 196 202 206 194 199 211 207 178 212 186 195 212 206 223 209 209 219 212 196 215 204 155 67 138 177 203 168 198 190 232 136 243 350 350 323 250 252 262 267 270
207 201 192 191 183 193 195 198 203 203 200 196 201 216 219 186 184 199 197 209 217 217 190 196 213 224 123 114 93 79 79 79 93 71 201 191 213 89 152 316 264 243 38 355 337 313 316
202 200 194 189 194 198 201 200 200 202 214 206 201 233 240 196 184 189 199 203 221 195 147 228 117 140 145 116 108 100 80 45 160 132 167 216 132 127 147 211 279 306 33 25 27 47 36
194 195 194 194 196 201 202 207 200 216 214 208 210 211 272 215 198 183 192 212 186 154 128 191 112 140 142 88 116 170 168 204 169 143 176 111 155 157 170 211 211 100 102 67 344 171 38
190 192 194 196 199 203 209 204 213 210 197 211 215 205 240 208 195 187 196 205 147 122 282 153 125 102 106 90 133 158 202 225 163 162 174 96 311 177 146 206 292 85 112 99 220 69 47
190 194 196 200 203 210 212 209 205 197 206 207 203 209 210 244 173 187 202 206 139 129 229 144 125 130 121 107 137 136 107 206 211 181 159 169 160 184 157 144 262 134 131 136 55 9 7
192 195 198 205 212 205 212 212 194 197 196 200 229 203 240 227 119 158 124 102 143 152 160 180 147 148 159 127 82 75 111 26 19 184 165 194 185 175 172 198 145 114 55 69 37 15 8